TimeEST,TemperatureF,Dew PointF,Humidity,Sea Level PressureIn,VisibilityMPH,Wind Direction,Wind SpeedMPH,Gust SpeedMPH,PrecipitationIn,Events,Conditions,WindDirDegrees,DateUTC
12:15 AM,48.2,44.6,87,30.09,10.0,WNW,9.2,-,N/A,,Overcast,290,2012-12-03 05:15:00
12:54 AM,48.0,42.1,80,30.10,10.0,West,10.4,-,N/A,,Overcast,280,2012-12-03 05:54:00
1:37 AM,46.4,41.0,81,30.13,10.0,West,6.9,-,N/A,,Overcast,280,2012-12-03 06:37:00
1:54 AM,46.9,41.0,80,30.14,10.0,West,8.1,-,N/A,,Overcast,280,2012-12-03 06:54:00
2:54 AM,45.0,39.9,82,30.16,10.0,WNW,5.8,-,N/A,,Mostly Cloudy,290,2012-12-03 07:54:00
3:54 AM,45.0,39.9,82,30.18,10.0,WSW,4.6,-,N/A,,Overcast,250,2012-12-03 08:54:00
4:54 AM,44.1,39.9,85,30.19,10.0,WSW,4.6,-,N/A,,Overcast,250,2012-12-03 09:54:00
5:54 AM,43.0,39.9,89,30.21,10.0,WSW,4.6,-,N/A,,Overcast,240,2012-12-03 10:54:00
6:54 AM,43.0,39.9,89,30.23,10.0,WSW,3.5,-,N/A,,Overcast,250,2012-12-03 11:54:00
7:54 AM,44.1,39.9,85,30.23,8.0,Calm,Calm,-,N/A,,Overcast,0,2012-12-03 12:54:00
8:54 AM,45.0,39.9,82,30.25,9.0,Calm,Calm,-,N/A,,Overcast,0,2012-12-03 13:54:00
9:54 AM,46.0,39.9,79,30.25,10.0,Calm,Calm,-,N/A,,Overcast,0,2012-12-03 14:54:00
10:54 AM,46.9,39.9,77,30.24,10.0,Calm,Calm,-,N/A,,Overcast,0,2012-12-03 15:54:00
11:54 AM,48.0,39.9,74,30.22,10.0,South,3.5,-,N/A,,Overcast,180,2012-12-03 16:54:00
12:54 PM,50.0,41.0,71,30.20,10.0,Calm,Calm,-,N/A,,Overcast,0,2012-12-03 17:54:00
1:47 PM,51.8,42.8,71,30.18,10.0,Calm,Calm,-,N/A,,Mostly Cloudy,0,2012-12-03 18:47:00
1:54 PM,51.1,42.1,71,30.18,10.0,Calm,Calm,-,N/A,,Scattered Clouds,0,2012-12-03 18:54:00
2:54 PM,52.0,42.1,69,30.18,10.0,ENE,3.5,-,N/A,,Partly Cloudy,70,2012-12-03 19:54:00
3:54 PM,50.0,42.1,74,30.17,10.0,East,5.8,-,N/A,,Scattered Clouds,90,2012-12-03 20:54:00
4:54 PM,46.9,41.0,80,30.18,10.0,East,5.8,-,N/A,,Scattered Clouds,90,2012-12-03 21:54:00
5:54 PM,46.0,41.0,83,30.19,10.0,East,6.9,-,N/A,,Partly Cloudy,90,2012-12-03 22:54:00
6:54 PM,45.0,39.9,82,30.18,10.0,ESE,4.6,-,N/A,,Scattered Clouds,110,2012-12-03 23:54:00
7:54 PM,46.0,41.0,83,30.16,9.0,ESE,8.1,-,N/A,,Mostly Cloudy,120,2012-12-04 00:54:00
8:54 PM,46.0,42.1,86,30.14,9.0,SE,3.5,-,N/A,,Mostly Cloudy,140,2012-12-04 01:54:00
9:54 PM,46.0,42.1,86,30.12,8.0,Calm,Calm,-,N/A,,Overcast,0,2012-12-04 02:54:00
10:54 PM,45.0,42.1,90,30.11,8.0,South,3.5,-,N/A,,Mostly Cloudy,180,2012-12-04 03:54:00
11:54 PM,46.9,43.0,86,30.10,8.0,Calm,Calm,-,N/A,,Mostly Cloudy,0,2012-12-04 04:54:00